Regional Weather Roundup
Issued by NWS Newport/Morehead, NC

Current Version | Previous Version | Graphics & Text | Print | Product List | Glossary Off
Versions: 1 2 3 4 5 6 7 8 9 10 11 12 13 14 15 16 17 18 19 20 21 22 23 24 25 26 27 28 29 30 31 32 33 34 35 36 37 38 39 40 41 42 43 44 45 46 47 48 49 50

000
ASUS42 KMHX 101813
RWRMHX
WEATHER ROUNDUP FOR EASTERN NORTH CAROLINA
NATIONAL WEATHER SERVICE NEWPORT/MOREHEAD CITY NC
100 PM EST SUN DEC 10 2017

NOTE: "FAIR" INDICATES FEW OR NO CLOUDS BELOW 12,000 FEET
WITH NO SIGNIFICANT WEATHER AND/OR OBSTRUCTIONS TO VISIBILITY

NCZ015>017-031-032-045>047-102-103-101900-
NORTH COAST

CITY           SKY/WX    TMP DP  RH WIND       PRES   REMARKS
EDENTON        MOSUNNY   45  26  48 NW10G18   30.14F
ELIZABETH CITY MOSUNNY   43  26  51 W9        30.13F
KITTY HAWK     CLEAR     41  25  52 W9G17     30.11F
MANTEO         MOSUNNY   42  24  49 NW10      30.13F

$$

NCZ045>047-081-094-103-104-101900-
CENTRAL COAST

CITY           SKY/WX    TMP DP  RH WIND       PRES   REMARKS
FRISCO         SUNNY     44  29  55 NW8       30.14F

$$

NCZ095-097-098-100-101-101900-
SOUTHERN COAST

CITY           SKY/WX    TMP DP  RH WIND       PRES   REMARKS
BEAUFORT       SUNNY     44  27  51 NW9       30.15F
CEDAR ISLAND   NOT AVBL
JACKSONVILLE   SUNNY     44  26  49 NW15      30.16F
PINEY ISLAND     N/A    N/A N/A N/A W12       30.15F
WILMINGTON     SUNNY     46  26  45 NW13G20   30.18F


$$

NCZ011>013-027>030-043-044-078>080-089-090>093-098-101900-
COASTAL PLAIN

CITY           SKY/WX    TMP DP  RH WIND       PRES   REMARKS
AHOSKIE        SUNNY     40  25  56 W5        30.14F
CLINTON        SUNNY     43  26  50 W5        30.19F
ELIZABETHTOWN  NOT AVBL
GOLDSBORO      SUNNY     45  24  44 W13       30.15F
GREENVILLE     SUNNY     43  25  49 W9        30.17F
HAVELOCK       SUNNY     45  50 100 NW15G24   30.16F
KENANSVILLE    NOT AVBL
KINSTON        SUNNY     45  25  45 NW9       30.16F
NEW BERN       SUNNY     43  27  53 NW9G20    30.16F
RICHLANDS      SUNNY     43  26  51 VRB7      30.17F
ROCKY MOUNT    SUNNY     42  25  50 W10       30.16F
WASHINGTON     SUNNY     43  24  45 W6        30.16F
WHITEVILLE     SUNNY     45  24  45 N5        30.19F

$$

AMZ130-135-150-152-154-156-158-170-250-252-270-ANZ085-086-088-633-658-670-101900-
MARINE OBSERVATIONS

STATION/POSITION TIME  TEMP    WIND        PRES    WAVE   SWELL
                       AIR SEA DIR/SP/G            HT/PER HT/PER
                 (UTC) (F)     (DEG/KT/KT) (MB)    (FT/S) (FT/S)
CHESAPEAKE LIGHT NOT AVBL
64 E VA BEACH    1750   44 61  280/ 14/ 21 1018.6    6/ 9   5/ 9
DUCK             1748   41 53  300/ 11/ 13 1019.2
2 E DUCK         1800      55                N/A     3/ 8   2/11
OREGON INLET     1736   41 47  280/ 10/ 16 1020.1
13E OREGON INLT  1748      57                N/A     5/ 8   3/ 8
HATTERAS CG      1748   41 51  310/ 13/ 16 1020.3
DIAMOND BUOY     1750   43 67  320/ 14/ 19 1020.5    7/ 8   5/ 8
CAPE LOOKOUT     1800          300/  9/ 12 1021.2
BEAUFORT LAB     1748   42 51  330/  7/ 11 1021.0
30 SE NEW RVR IN 1708   43 67  350/ 14/ 19 1022.0
30 SE NEW RVR IN 1800      67                N/A     5/ 8
27 SE WRIGHTSVLE 1708   44 66  320/ 16/ 23 1022.0
5 SE WRIGHTSVLE  1708   43 58  330/ 14/ 19 1022.3
225 S CAPE HAT   1750   58 75  320/ 17/ 23 1019.3   10/ 9   7/ 9
41 SE CHARLESTON 1750      74  340/  8/ 14 1023.2    4/ 6   3/ 6

$$




USA.gov is the U.S. government's official web portal to all federal, state and local government web resources and services.